Location: The Jewett Observatory
(46.7288°N, 117.1525°W)
Time: 21:16:38
(UTC-07:00)

Amateur Radio Satellites - All Passes

Search period start: 24 April 2015 20:46
Search period end: 25 April 2015 20:46
Location: The Jewett Observatory, 46.7288°N, 117.1525°W

Satellite Date Start Highest point End Downlink Frequencies (MHz)
Time Altitude Azimuth
UWE-3 24 Apr 20:50:34 20:54:06 25° 65° (ENE) 20:57:48 435.000/436.395/437.385
AUBIESAT-1 24 Apr 20:50:56 20:53:59 19° 304° (NW) 20:56:47 437.475
SO-50 24 Apr 20:55:08 21:00:04 63° 237° (WSW) 21:04:54 436.795
RS-15 24 Apr 21:00:02 21:10:12 37° 21° (NNE) 21:20:51 29.354- 29.394
DOVE 4 24 Apr 21:00:46 21:05:00 68° 259° (W) 21:09:29 437.250
FUNcube-1 24 Apr 21:02:48 21:06:22 26° 66° (ENE) 21:10:06 145.935
PRISM 24 Apr 21:10:12 21:12:34 15° 299° (WNW) 21:14:47 437.425
UKube-1 24 Apr 21:10:28 21:13:36 20° 63° (ENE) 21:16:50 .
COMPASS 1 24 Apr 21:21:02 21:25:11 52° 261° (W) 21:29:22 437.405
ZACube-1 24 Apr 21:27:06 21:31:14 44° 70° (ENE) 21:35:30 437.345
Oscar 11 24 Apr 21:28:38 21:33:00 81° 75° (ENE) 21:37:24 145.826/435.025
VELOX 1 24 Apr 21:29:40 21:32:24 17° 61° (ENE) 21:35:16 145.980
STRAND 1 24 Apr 21:30:07 21:33:46 20° 300° (WNW) 21:37:17 437.568
HUMSAT D 24 Apr 21:31:00 21:34:26 25° 66° (ENE) 21:38:00 437.325/437.525
CUBEBUG 1 24 Apr 21:40:11 21:40:49 10° 58° (ENE) 21:41:40 437.445
HO-68 24 Apr 21:42:46 21:49:16 35° 265° (W) 21:55:41 435.675
SEEDS 24 Apr 21:45:49 21:49:24 25° 267° (W) 21:52:55 437.485
DELFI C3 24 Apr 21:46:05 21:50:11 87° 256° (WSW) 21:54:18 145.870
AISAT 24 Apr 21:46:16 21:49:45 24° 65° (ENE) 21:53:20 437.250
CINEMA 3 24 Apr 21:52:34 21:56:39 39° 264° (W) 22:00:55 145.822/145.860
CANX-2 24 Apr 21:53:32 21:56:25 17° 271° (W) 21:59:11 2200.000
CUBEBUG 2 24 Apr 21:57:50 22:02:10 62° 260° (W) 22:06:41 437.445
Cosmos 2499 24 Apr 21:58:34 22:02:26 13° 313° (NW) 22:05:45 435.465 / 435.565
GOMX 1 24 Apr 22:00:29 22:02:24 12° 275° (W) 22:04:08 467.674
DX 1 24 Apr 22:00:39 22:04:56 65° 72° (ENE) 22:09:15 434.975-435.025
CUTE 1.7 + AOD 2 24 Apr 22:03:13 22:05:47 15° 272° (W) 22:08:12 437.475
VERMONT LUNAR 24 Apr 22:04:22 22:05:50 12° 204° (SSW) 22:07:14 437.305
AAUSAT CUBESAT 2 24 Apr 22:05:36 22:08:55 21° 268° (W) 22:12:10 437.432
Cosmos 2491 24 Apr 22:08:44 22:16:18 36° 85° (E) 22:24:05 435.465 / 435.565
YUBILEINY 24 Apr 22:15:31 22:24:21 82° 80° (E) 22:33:05 435.215
ESTCUBE 1 24 Apr 22:21:25 22:25:18 29° 67° (ENE) 22:29:14 437.505/2401.250
PHONESAT 2.4 24 Apr 22:22:05 22:24:46 20° 198° (SSW) 22:27:25 2401.200-2431.200
UWE-3 24 Apr 22:26:21 22:30:28 39° 264° (W) 22:34:41 435.000/436.395/437.385
O/OREOS (USA 219) 24 Apr 22:31:41 22:36:03 46° 109° (ESE) 22:40:27 437.305
50 SAT 24 Apr 22:36:36 22:40:36 74° 75° (ENE) 22:44:40 437.505
FUNcube-1 24 Apr 22:38:31 22:42:34 36° 264° (W) 22:46:42 145.935
QB50P2 24 Apr 22:39:26 22:40:32 11° 86° (E) 22:41:54 145.880/145.840
TIGRISAT 24 Apr 22:43:30 22:47:26 26° 93° (E) 22:51:22 435.000
UKube-1 24 Apr 22:45:18 22:49:28 46° 260° (W) 22:53:40 .
UNISAT 6 24 Apr 22:47:17 22:51:21 29° 93° (E) 22:55:27 437.425
NANOSAT C BR1 24 Apr 22:56:56 22:59:38 17° 90° (E) 23:02:29 145.865
POPSAT HIP 1 24 Apr 22:59:33 23:02:26 18° 90° (E) 23:05:27 437.405
SPROUT 24 Apr 23:01:45 23:04:44 19° 64° (ENE) 23:07:51 437.525
VELOX 1 24 Apr 23:04:12 23:08:34 61° 259° (W) 23:12:57 145.980
ZACube-1 24 Apr 23:04:31 23:07:52 21° 270° (W) 23:11:11 437.345
HUMSAT D 24 Apr 23:06:09 23:10:04 35° 264° (W) 23:14:02 437.325/437.525
Oscar 11 24 Apr 23:08:26 23:09:52 11° 274° (W) 23:11:03 145.826/435.025
CUBEBUG 1 24 Apr 23:12:12 23:16:31 80° 75° (ENE) 23:20:52 437.445
RS-15 24 Apr 23:13:10 23:24:41 79° 50° (NE) 23:36:44 29.354- 29.394
AISAT 24 Apr 23:22:03 23:26:11 39° 262° (W) 23:30:20 437.250
POLYITAN 1 24 Apr 23:28:08 23:32:06 35° 96° (E) 23:36:05 437.675
BUGSAT 1 24 Apr 23:28:43 23:32:06 24° 94° (E) 23:35:33 437.445
ANTELSAT 24 Apr 23:28:54 23:33:40 72° 103° (ESE) 23:38:20 437.575/2403.000
DUCHIFAT 1 24 Apr 23:30:18 23:34:14 35° 96° (E) 23:38:11 145.980
Cosmos 2504 24 Apr 23:30:29 23:37:14 28° 61° (ENE) 23:43:46 435.465 / 435.565
DX 1 24 Apr 23:39:23 23:41:42 14° 272° (W) 23:43:51 434.975-435.025
QB50P1 24 Apr 23:47:01 23:51:15 54° 100° (E) 23:55:27 145.935-145.965
ITUPSAT 1 24 Apr 23:52:39 23:54:09 12° 56° (NE) 23:55:52 437.325
AIST 1 24 Apr 23:57:42 00:00:19 16° 86° (E) 00:03:03
ESTCUBE 1 24 Apr 23:58:02 00:02:08 32° 265° (W) 00:06:11 437.505/2401.250
Cosmos 2491 25 Apr 00:04:16 00:12:51 57° 286° (WNW) 00:21:29 435.465 / 435.565
TISAT 1 25 Apr 00:08:57 00:13:07 72° 75° (ENE) 00:17:19 437.305
O/OREOS (USA 219) 25 Apr 00:11:58 00:15:44 24° 309° (NW) 00:19:26 437.305
QB50P2 25 Apr 00:12:46 00:17:06 80° 285° (WNW) 00:21:23 145.880/145.840
YUBILEINY 25 Apr 00:13:37 00:20:16 24° 281° (W) 00:26:33 435.215
50 SAT 25 Apr 00:15:00 00:16:01 11° 274° (W) 00:16:49 437.505
TIGRISAT 25 Apr 00:19:52 00:24:19 40° 291° (WNW) 00:28:40 435.000
BEESAT 25 Apr 00:21:44 00:25:13 21° 62° (ENE) 00:28:49 436.000
SWISSCUBE 25 Apr 00:23:51 00:27:33 23° 63° (ENE) 00:31:21 437.505
UNISAT 6 25 Apr 00:23:52 00:28:13 36° 292° (WNW) 00:32:27 437.425
NANOSAT C BR1 25 Apr 00:31:39 00:35:50 52° 288° (WNW) 00:40:01 145.865
POPSAT HIP 1 25 Apr 00:34:28 00:38:38 49° 288° (WNW) 00:42:47 437.405
SPROUT 25 Apr 00:36:23 00:40:32 48° 261° (W) 00:44:43 437.525
CUBEBUG 1 25 Apr 00:52:14 00:53:33 11° 274° (W) 00:54:38 437.445
BUGSAT 1 25 Apr 01:03:54 01:07:39 33° 291° (WNW) 01:11:24 437.445
POLYITAN 1 25 Apr 01:04:17 01:07:54 26° 294° (WNW) 01:11:26 437.675
DUCHIFAT 1 25 Apr 01:06:23 01:09:56 25° 294° (WNW) 01:13:24 145.980
ANTELSAT 25 Apr 01:06:56 01:09:56 16° 299° (WNW) 01:12:45 437.575/2403.000
Cosmos 2504 25 Apr 01:23:26 01:31:35 69° 266° (W) 01:39:04 435.465 / 435.565
QB50P1 25 Apr 01:23:50 01:26:46 18° 297° (WNW) 01:29:35 145.935-145.965
RS-15 25 Apr 01:26:17 01:36:21 35° 252° (WSW) 01:46:28 29.354- 29.394
ITUPSAT 1 25 Apr 01:26:31 01:31:18 76° 75° (ENE) 01:36:08 437.325
STARS 25 Apr 01:28:51 01:30:22 12° 58° (ENE) 01:32:06 437.465
AIST 1 25 Apr 01:33:25 01:37:37 50° 283° (WNW) 01:41:48
Oscar 19 25 Apr 01:38:30 01:42:59 29° 94° (E) 01:47:32 437.125/150
TISAT 1 25 Apr 01:47:50 01:49:30 12° 273° (W) 01:50:56 437.305
QB50P2 25 Apr 01:51:34 01:52:20 10° 302° (WNW) 01:52:51 145.880/145.840
BEESAT 25 Apr 01:58:02 02:02:44 55° 260° (W) 02:07:27 436.000
SWISSCUBE 25 Apr 02:00:31 02:05:09 48° 261° (W) 02:09:48 437.505
KKS-1 25 Apr 02:05:47 02:09:51 38° 69° (ENE) 02:14:01 437.445
Cosmos 2491 25 Apr 02:07:53 02:12:18 14° 313° (NW) 02:16:15 435.465 / 435.565
ITAMSAT 1 25 Apr 02:12:03 02:15:36 19° 90° (E) 02:19:19 435.822/435.867
Gurwin Techsat 1B 25 Apr 02:36:48 02:41:19 28° 93° (E) 02:45:54 435.225
GONETS M04 25 Apr 02:37:59 02:45:41 33° 64° (ENE) 02:53:30
STARS 25 Apr 03:01:48 03:06:12 89° 77° (ENE) 03:10:39 437.465
CUSAT 1 25 Apr 03:06:01 03:12:22 32° 66° (ENE) 03:19:36 437.405
ITUPSAT 1 25 Apr 03:07:15 03:09:51 14° 273° (W) 03:12:14 437.325
AO-7 25 Apr 03:08:59 03:12:19 13° 82° (E) 03:16:16 29.400- 29.500
Oscar 19 25 Apr 03:17:36 03:22:29 41° 292° (WNW) 03:27:20 437.125/150
Cosmos 2504 25 Apr 03:19:41 03:23:28 14° 287° (WNW) 03:26:38 435.465 / 435.565
BEESAT 3 25 Apr 03:27:49 03:31:54 77° 125° (SE) 03:36:03 437.485
BEESAT 2 25 Apr 03:28:18 03:32:23 66° 123° (ESE) 03:36:32 435.950
JAS-2 25 Apr 03:34:28 03:38:23 17° 83° (E) 03:42:16 435.910
DANDE 25 Apr 03:40:26 03:47:05 42° 70° (ENE) 03:54:57 436.750
KKS-1 25 Apr 03:42:59 03:46:39 24° 267° (W) 03:50:16 437.445
ITAMSAT 1 25 Apr 03:50:29 03:55:37 63° 289° (WNW) 04:00:43 435.822/435.867
Cosmos 2499 25 Apr 03:54:44 03:59:19 17° 52° (NE) 04:04:02 435.465 / 435.565
MOZHAYETS 4 25 Apr 04:03:48 04:08:12 44° 70° (ENE) 04:12:38
HORYU 2 25 Apr 04:14:54 04:19:17 47° 99° (E) 04:23:37 437.375
Gurwin Techsat 1B 25 Apr 04:16:27 04:21:30 44° 292° (WNW) 04:26:29 435.225
AIST 2 25 Apr 04:24:30 04:28:46 80° 125° (SE) 04:33:05 435.215
AUBIESAT-1 25 Apr 04:32:17 04:35:25 18° 55° (NE) 04:38:40 437.475
GONETS M04 25 Apr 04:34:31 04:43:17 66° 267° (W) 04:51:58
STARS 25 Apr 04:42:53 04:43:25 10° 275° (W) 04:43:41 437.465
CUSAT 1 25 Apr 04:48:16 04:55:34 68° 263° (W) 05:03:49 437.405
AO-7 25 Apr 04:58:44 05:07:02 65° 104° (ESE) 05:15:19 29.400- 29.500
BEESAT 3 25 Apr 05:07:25 05:10:26 19° 325° (NW) 05:13:24 437.485
BEESAT 2 25 Apr 05:07:42 05:10:55 21° 324° (NW) 05:14:06 435.950
JAS-2 25 Apr 05:18:00 05:24:37 82° 287° (WNW) 05:30:24 435.910
M-CUBED/EXP-1 PRIME 25 Apr 05:22:05 05:26:44 50° 66° (ENE) 05:31:26 437.505
DANDE 25 Apr 05:23:34 05:30:30 50° 266° (W) 05:38:30 436.750
STRAND 1 25 Apr 05:31:30 05:35:03 20° 60° (ENE) 05:38:44 437.568
ITAMSAT 1 25 Apr 05:32:56 05:34:14 11° 307° (NW) 05:35:15 435.822/435.867
CUBESAT XI-V 25 Apr 05:38:48 05:42:59 35° 68° (ENE) 05:47:13 437.345
MOZHAYETS 4 25 Apr 05:41:57 05:45:39 23° 269° (W) 05:49:17
Cosmos 2499 25 Apr 05:46:23 05:54:21 73° 78° (ENE) 06:01:42 435.465 / 435.565
HORYU 2 25 Apr 05:52:12 05:55:39 22° 297° (WNW) 05:59:00 437.375
AIST 2 25 Apr 06:04:43 06:07:54 19° 326° (NW) 06:11:02 435.215
AUBIESAT-1 25 Apr 06:04:54 06:09:42 76° 251° (WSW) 06:14:30 437.475
PRISM 25 Apr 06:26:08 06:30:16 68° 74° (ENE) 06:34:25 437.425
CUSAT 1 25 Apr 06:33:16 06:37:30 15° 278° (W) 06:41:29 437.405
GONETS M04 25 Apr 06:34:17 06:38:32 14° 287° (WNW) 06:42:13
CUTE-I 25 Apr 06:35:48 06:40:36 34° 95° (E) 06:45:26 437.470
Cubesat XI-IV 25 Apr 06:45:09 06:50:10 41° 97° (E) 06:55:12 437.490
AO-7 25 Apr 06:52:06 06:59:27 35° 304° (NW) 07:06:40 29.400- 29.500
M-CUBED/EXP-1 PRIME 25 Apr 06:57:56 07:01:49 23° 263° (W) 07:05:39 437.505
O/OREOS (USA 219) 25 Apr 07:00:05 07:03:27 20° 49° (NE) 07:06:52 437.305
JAS-2 25 Apr 07:04:30 07:08:39 17° 308° (NW) 07:12:19 435.910
STRAND 1 25 Apr 07:08:45 07:13:49 66° 258° (WSW) 07:18:56 437.568
CUBESAT XI-V 25 Apr 07:16:30 07:20:31 28° 266° (W) 07:24:28 437.345
Cosmos 2499 25 Apr 07:40:42 07:46:41 24° 280° (W) 07:52:08 435.465 / 435.565
AUBIESAT-1 25 Apr 07:44:48 07:45:19 10° 271° (W) 07:45:31 437.475
PRISM 25 Apr 08:04:24 08:06:15 12° 272° (W) 08:07:56 437.425
Cosmos 2491 25 Apr 08:14:49 08:21:08 22° 56° (NE) 08:27:45 435.465 / 435.565
CUTE-I 25 Apr 08:15:51 08:20:44 37° 294° (WNW) 08:25:34 437.470
GOMX 1 25 Apr 08:18:12 08:21:47 19° 89° (E) 08:25:40 467.674
Cubesat XI-IV 25 Apr 08:25:31 08:30:11 31° 296° (WNW) 08:34:46 437.490
PCSat 25 Apr 08:26:05 08:31:12 45° 115° (ESE) 08:36:24 145.827
BRITE-PL 25 Apr 08:27:35 08:32:07 33° 95° (E) 08:37:00 437.365/2234.400
O/OREOS (USA 219) 25 Apr 08:38:50 08:43:16 55° 250° (WSW) 08:47:38 437.305
AO-7 25 Apr 08:48:13 08:49:52 11° 328° (NNW) 08:51:11 29.400- 29.500
DOVE 4 25 Apr 08:56:28 09:00:52 29° 93° (E) 09:05:27 437.250
ANTELSAT 25 Apr 08:57:04 08:58:55 13° 58° (ENE) 09:00:59 437.575/2403.000
COMPASS 1 25 Apr 09:02:21 09:05:31 21° 91° (E) 09:08:44 437.405
HO-68 25 Apr 09:06:17 09:13:01 42° 97° (E) 09:19:46 435.675
Oscar 11 25 Apr 09:15:08 09:16:49 12° 86° (E) 09:18:42 145.826/435.025
DELFI C3 25 Apr 09:25:22 09:26:09 11° 86° (E) 09:27:11 145.870
SEEDS 25 Apr 09:26:34 09:30:39 44° 98° (E) 09:34:43 437.485
YUBILEINY 25 Apr 09:26:55 09:32:26 20° 77° (ENE) 09:38:22 435.215
CANX-2 25 Apr 09:34:10 09:38:29 71° 102° (ESE) 09:42:44 2200.000
QB50P2 25 Apr 09:35:08 09:37:09 14° 61° (ENE) 09:39:20 145.880/145.840
CUTE 1.7 + AOD 2 25 Apr 09:43:22 09:47:41 81° 103° (ESE) 09:51:57 437.475
CINEMA 3 25 Apr 09:43:51 09:48:34 42° 97° (E) 09:53:21 145.822/145.860
AAUSAT CUBESAT 2 25 Apr 09:44:42 09:48:48 49° 99° (E) 09:52:51 437.432
TIGRISAT 25 Apr 09:44:58 09:48:57 32° 67° (ENE) 09:53:05 435.000
CUBEBUG 2 25 Apr 09:46:23 09:50:15 25° 92° (E) 09:54:12 437.445
UNISAT 6 25 Apr 09:48:56 09:53:03 35° 68° (ENE) 09:57:19 437.425
NANOSAT C BR1 25 Apr 09:52:32 09:55:28 19° 64° (ENE) 09:58:30 145.865
GOMX 1 25 Apr 09:55:18 10:00:19 63° 287° (WNW) 10:05:36 467.674
POPSAT HIP 1 25 Apr 09:55:23 09:58:26 20° 64° (ENE) 10:01:37 437.405
BRITE-PL 25 Apr 10:06:05 10:10:40 36° 291° (WNW) 10:15:30 437.365/2234.400
BEESAT 3 25 Apr 10:06:48 10:09:52 20° 36° (NE) 10:12:56 437.485
BEESAT 2 25 Apr 10:07:45 10:10:39 18° 34° (NE) 10:13:35 435.950
PCSat 25 Apr 10:09:49 10:14:47 35° 315° (NW) 10:19:45 145.827
Cosmos 2491 25 Apr 10:10:42 10:19:37 85° 81° (E) 10:28:29 435.465 / 435.565
UWE-3 25 Apr 10:13:06 10:17:26 36° 96° (E) 10:21:46 435.000/436.395/437.385
BUGSAT 1 25 Apr 10:21:52 10:25:08 25° 66° (ENE) 10:28:29 437.445
FUNcube-1 25 Apr 10:23:46 10:28:01 36° 96° (E) 10:32:15 145.935
POLYITAN 1 25 Apr 10:23:56 10:27:51 38° 70° (ENE) 10:31:50 437.675
DUCHIFAT 1 25 Apr 10:25:28 10:29:20 38° 70° (ENE) 10:33:17 145.980
UKube-1 25 Apr 10:30:20 10:33:47 23° 93° (E) 10:37:17 .
ANTELSAT 25 Apr 10:30:27 10:35:01 87° 70° (ENE) 10:39:42 437.575/2403.000
DOVE 4 25 Apr 10:33:59 10:38:44 41° 290° (WNW) 10:43:37 437.250
COMPASS 1 25 Apr 10:37:25 10:41:24 40° 290° (WNW) 10:45:19 437.405
QB50P1 25 Apr 10:42:25 10:46:33 58° 73° (ENE) 10:50:44 145.935-145.965
HUMSAT D 25 Apr 10:47:18 10:51:10 31° 95° (E) 10:55:02 437.325/437.525
ZACube-1 25 Apr 10:48:48 10:53:25 65° 101° (E) 10:57:59 437.345
Oscar 11 25 Apr 10:49:14 10:53:37 74° 285° (WNW) 10:57:56 145.826/435.025
VELOX 1 25 Apr 10:52:31 10:55:47 20° 92° (E) 10:59:11 145.980
HO-68 25 Apr 10:54:03 11:00:51 45° 297° (WNW) 11:07:32 435.675
DELFI C3 25 Apr 10:57:51 11:01:54 74° 285° (WNW) 11:05:55 145.870
CUBEBUG 1 25 Apr 11:00:08 11:01:47 12° 87° (E) 11:03:40 437.445
SEEDS 25 Apr 11:03:01 11:06:11 20° 296° (WNW) 11:09:16 437.485
AIST 2 25 Apr 11:05:47 11:09:07 22° 36° (NE) 11:12:27 435.215
QB50P2 25 Apr 11:08:19 11:12:32 74° 258° (WSW) 11:16:48 145.880/145.840
AISAT 25 Apr 11:09:47 11:13:45 31° 96° (E) 11:17:45 437.250
CANX-2 25 Apr 11:11:35 11:13:54 14° 299° (WNW) 11:16:04 2200.000
SO-50 25 Apr 11:13:05 11:16:38 22° 113° (ESE) 11:20:24 436.795
YUBILEINY 25 Apr 11:19:14 11:28:05 85° 96° (E) 11:36:57 435.215
CUTE 1.7 + AOD 2 25 Apr 11:21:07 11:23:02 13° 300° (WNW) 11:24:48 437.475
AAUSAT CUBESAT 2 25 Apr 11:21:10 11:24:06 18° 296° (WNW) 11:26:55 437.432
CINEMA 3 25 Apr 11:21:22 11:25:36 28° 294° (WNW) 11:29:49 145.822/145.860
TIGRISAT 25 Apr 11:21:38 11:25:41 31° 265° (W) 11:29:49 435.000
DX 1 25 Apr 11:22:10 11:26:34 83° 103° (ESE) 11:30:56 434.975-435.025
CUBEBUG 2 25 Apr 11:22:36 11:27:08 43° 290° (WNW) 11:31:38 437.445
UNISAT 6 25 Apr 11:25:57 11:29:54 28° 267° (W) 11:33:53 437.425
NANOSAT C BR1 25 Apr 11:26:56 11:31:00 47° 261° (W) 11:35:07 145.865
POPSAT HIP 1 25 Apr 11:30:01 11:34:03 44° 261° (W) 11:38:08 437.405
GOMX 1 25 Apr 11:36:31 11:37:41 11° 303° (WNW) 11:38:35 467.674
AIST 1 25 Apr 11:37:26 11:41:36 51° 77° (ENE) 11:45:47
BEESAT 3 25 Apr 11:44:13 11:48:20 70° 236° (SW) 11:52:21 437.485
BEESAT 2 25 Apr 11:45:09 11:49:18 81° 237° (WSW) 11:53:24 435.950
50 SAT 25 Apr 11:45:38 11:49:44 80° 104° (ESE) 11:53:45 437.505
ESTCUBE 1 25 Apr 11:47:23 11:51:39 41° 98° (E) 11:55:54 437.505/2401.250
UWE-3 25 Apr 11:49:47 11:53:52 29° 293° (WNW) 11:57:53 435.000/436.395/437.385
ISS 25 Apr 11:56:10 11:58:36 20° 138° (SE) 12:01:04 145.825
BUGSAT 1 25 Apr 11:56:55 12:00:32 31° 264° (W) 12:04:08 437.445
PCSat 25 Apr 11:57:58 11:59:57 12° 339° (NNW) 12:01:48 145.827
FUNcube-1 25 Apr 12:00:17 12:04:14 28° 293° (WNW) 12:08:07 145.935
POLYITAN 1 25 Apr 12:00:35 12:03:56 22° 268° (W) 12:07:14 437.675
DUCHIFAT 1 25 Apr 12:02:01 12:05:20 22° 268° (W) 12:08:36 145.980
UKube-1 25 Apr 12:06:02 12:10:05 38° 291° (WNW) 12:14:05 .
Cosmos 2491 25 Apr 12:08:56 12:15:31 23° 281° (W) 12:21:45 435.465 / 435.565
ANTELSAT 25 Apr 12:11:04 12:12:35 11° 276° (W) 12:13:52 437.575/2403.000
Cosmos 2504 25 Apr 12:13:14 12:19:24 23° 79° (E) 12:25:52 435.465 / 435.565
QB50P1 25 Apr 12:20:26 12:22:53 15° 272° (W) 12:25:10 145.935-145.965
SPROUT 25 Apr 12:20:31 12:24:01 24° 93° (E) 12:27:34 437.525
HUMSAT D 25 Apr 12:23:05 12:26:53 29° 292° (WNW) 12:30:36 437.325/437.525
Gurwin Techsat 1B 25 Apr 12:26:15 12:26:43 10° 53° (NE) 12:27:27 435.225
ZACube-1 25 Apr 12:26:16 12:29:20 17° 298° (WNW) 12:32:15 437.345
VELOX 1 25 Apr 12:28:22 12:32:37 45° 290° (WNW) 12:36:50 145.980
CUBEBUG 1 25 Apr 12:34:24 12:38:46 74° 286° (WNW) 12:43:08 437.445
AIST 2 25 Apr 12:43:53 12:48:07 65° 237° (WSW) 12:52:15 435.215
HO-68 25 Apr 12:44:43 12:46:56 11° 318° (NW) 12:48:49 435.675
AISAT 25 Apr 12:46:24 12:50:20 30° 293° (WNW) 12:54:12 437.250
SO-50 25 Apr 12:52:12 12:56:50 57° 312° (NW) 13:01:39 436.795
Oscar 19 25 Apr 12:57:58 13:03:00 56° 70° (ENE) 13:08:05 437.125/150
DX 1 25 Apr 13:00:11 13:02:15 13° 301° (WNW) 13:04:08 434.975-435.025
AIST 1 25 Apr 13:16:16 13:18:53 16° 274° (W) 13:21:21
YUBILEINY 25 Apr 13:19:07 13:26:13 25° 301° (WNW) 13:33:03 435.215
50 SAT 25 Apr 13:22:26 13:23:59 12° 300° (WNW) 13:25:21 437.505
ESTCUBE 1 25 Apr 13:24:42 13:28:19 24° 295° (WNW) 13:31:51 437.505/2401.250
ITUPSAT 1 25 Apr 13:25:35 13:28:22 16° 88° (E) 13:31:20 437.325
TISAT 1 25 Apr 13:26:16 13:30:33 89° 103° (ESE) 13:34:49 437.305
ISS 25 Apr 13:31:24 13:34:40 76° 335° (NNW) 13:37:57 145.825
ITAMSAT 1 25 Apr 13:32:27 13:37:12 39° 67° (ENE) 13:42:01 435.822/435.867
RS-15 25 Apr 13:41:48 13:50:58 35° 108° (ESE) 14:00:35 29.354- 29.394
JAS-2 25 Apr 13:49:43 13:54:11 17° 52° (NE) 13:58:48 435.910
BEESAT 25 Apr 13:55:36 13:59:47 30° 95° (E) 14:04:00 436.000
SPROUT 25 Apr 13:56:13 14:00:14 37° 291° (WNW) 14:04:12 437.525
SWISSCUBE 25 Apr 13:57:59 14:02:20 34° 96° (E) 14:06:40 437.505
Gurwin Techsat 1B 25 Apr 14:00:31 14:05:43 58° 71° (ENE) 14:10:57 435.225
Cosmos 2504 25 Apr 14:02:58 14:11:54 89° 279° (W) 14:20:42 435.465 / 435.565
AO-7 25 Apr 14:10:10 14:16:53 30° 52° (NE) 14:23:47 29.400- 29.500
SO-50 25 Apr 14:35:24 14:38:27 16° 335° (NNW) 14:41:29 436.795
Oscar 19 25 Apr 14:38:48 14:42:45 21° 270° (W) 14:46:37 437.125/150
STARS 25 Apr 14:50:19 14:52:29 14° 88° (E) 14:54:51 437.465
ITUPSAT 1 25 Apr 15:02:04 15:06:50 67° 287° (WNW) 15:11:32 437.325
TISAT 1 25 Apr 15:04:12 15:05:44 12° 301° (WNW) 15:07:05 437.305
ISS 25 Apr 15:08:19 15:11:20 33° 355° (N) 15:14:23 145.825
ITAMSAT 1 25 Apr 15:12:13 15:16:49 31° 265° (W) 15:21:22 435.822/435.867
HORYU 2 25 Apr 15:15:45 15:20:11 62° 72° (ENE) 15:24:40 437.375
PCSat 25 Apr 15:28:17 15:31:52 18° 31° (NNE) 15:35:33 145.827
KKS-1 25 Apr 15:30:09 15:34:33 52° 100° (E) 15:38:57 437.445
JAS-2 25 Apr 15:30:21 15:38:05 65° 71° (ENE) 15:45:33 435.910
BEESAT 25 Apr 15:33:21 15:37:41 34° 293° (WNW) 15:41:56 436.000
SWISSCUBE 25 Apr 15:35:56 15:40:08 31° 294° (WNW) 15:44:15 437.505
Gurwin Techsat 1B 25 Apr 15:42:04 15:46:08 21° 270° (W) 15:50:05 435.225
GONETS M04 25 Apr 15:43:33 15:50:51 32° 83° (E) 15:58:26
RS-15 25 Apr 15:51:35 16:02:30 76° 311° (NW) 16:13:47 29.354- 29.394
Cosmos 2504 25 Apr 15:59:45 16:06:42 24° 302° (WNW) 16:13:16 435.465 / 435.565
AO-7 25 Apr 16:00:43 16:09:02 79° 253° (WSW) 16:17:23 29.400- 29.500
CUSAT 1 25 Apr 16:20:54 16:22:45 13° 79° (E) 16:25:01 437.405
CUTE-I 25 Apr 16:24:19 16:26:28 13° 55° (NE) 16:28:51 437.470
STARS 25 Apr 16:25:02 16:29:29 69° 287° (WNW) 16:33:55 437.465
Cubesat XI-IV 25 Apr 16:33:04 16:35:57 15° 57° (ENE) 16:39:02 437.490
Cosmos 2499 25 Apr 16:39:00 16:41:26 12° 73° (ENE) 16:44:31 435.465 / 435.565
ITUPSAT 1 25 Apr 16:43:22 16:43:53 10° 305° (NW) 16:44:12 437.325
ISS 25 Apr 16:44:59 16:48:09 44° 15° (NNE) 16:51:18 145.825
HORYU 2 25 Apr 16:54:34 16:57:19 15° 271° (W) 16:59:55 437.375
DANDE 25 Apr 16:58:36 17:01:19 21° 85° (E) 17:04:44 436.750
KKS-1 25 Apr 17:07:35 17:10:52 20° 297° (WNW) 17:14:04 437.445
PCSat 25 Apr 17:10:56 17:16:21 69° 54° (NE) 17:21:46 145.827
JAS-2 25 Apr 17:16:40 17:23:34 32° 269° (W) 17:30:08 435.910
MOZHAYETS 4 25 Apr 17:32:55 17:37:32 72° 102° (ESE) 17:42:06
GONETS M04 25 Apr 17:38:30 17:47:13 64° 284° (WNW) 17:56:00
HO-68 25 Apr 17:56:58 17:58:24 11° 41° (NE) 18:00:10 435.675
VERMONT LUNAR 25 Apr 17:57:38 18:00:22 23° 168° (SSE) 18:03:08 437.305
AO-7 25 Apr 17:58:02 18:03:23 17° 275° (W) 18:08:16 29.400- 29.500
CUTE-I 25 Apr 18:00:27 18:05:44 73° 73° (ENE) 18:11:04 437.470
CUSAT 1 25 Apr 18:00:46 18:04:30 57° 286° (WNW) 18:09:33 437.405
SO-50 25 Apr 18:00:55 18:03:43 15° 23° (NNE) 18:06:37 436.795
RS-15 25 Apr 18:07:09 18:17:03 35° 341° (NNW) 18:27:14 29.354- 29.394
Cubesat XI-IV 25 Apr 18:10:02 18:15:22 87° 75° (ENE) 18:20:45 437.490
ISS 25 Apr 18:21:24 18:24:33 45° 214° (SW) 18:27:40 145.825
Cosmos 2499 25 Apr 18:24:26 18:33:01 57° 92° (E) 18:41:23 435.465 / 435.565
PHONESAT 2.4 25 Apr 18:26:00 18:28:39 20° 162° (SSE) 18:31:20 2401.200-2431.200
M-CUBED/EXP-1 PRIME 25 Apr 18:36:55 18:40:14 23° 97° (E) 18:43:25 437.505
DANDE 25 Apr 18:41:03 18:44:19 30° 295° (WNW) 18:48:28 436.750
PCSat 25 Apr 18:55:19 18:59:19 21° 252° (WSW) 19:03:08 145.827
CUTE 1.7 + AOD 2 25 Apr 19:06:58 19:07:45 11° 59° (ENE) 19:08:46 437.475
CUBESAT XI-V 25 Apr 19:09:24 19:13:58 59° 100° (E) 19:18:31 437.345
MOZHAYETS 4 25 Apr 19:11:29 19:14:15 16° 299° (WNW) 19:16:53
STRAND 1 25 Apr 19:16:33 19:21:09 34° 95° (E) 19:25:47 437.568
AUBIESAT-1 25 Apr 19:18:46 19:22:56 54° 105° (ESE) 19:26:45 437.475
GOMX 1 25 Apr 19:29:59 19:33:17 23° 64° (ENE) 19:36:49 467.674
YUBILEINY 25 Apr 19:32:11 19:34:46 12° 44° (NE) 19:37:53 435.215
VERMONT LUNAR 25 Apr 19:34:25 19:37:22 27° 184° (S) 19:40:18 437.305
HO-68 25 Apr 19:37:47 19:44:25 43° 63° (ENE) 19:51:09 435.675
SO-50 25 Apr 19:40:39 19:45:29 49° 46° (NE) 19:50:16 436.795
PRISM 25 Apr 19:41:05 19:45:12 75° 103° (ESE) 19:49:17 437.425
GONETS M04 25 Apr 19:41:12 19:46:23 16° 311° (NW) 19:51:10
BRITE-PL 25 Apr 19:42:06 19:46:02 43° 70° (ENE) 19:50:11 437.365/2234.400
CUTE-I 25 Apr 19:42:59 19:46:28 17° 272° (W) 19:49:45 437.470
Cubesat XI-IV 25 Apr 19:53:31 19:56:19 14° 274° (W) 19:58:50 437.490
COMPASS 1 25 Apr 19:56:34 19:59:48 22° 66° (ENE) 20:03:08 437.405
PHONESAT 2.4 25 Apr 20:03:10 20:06:21 30° 179° (S) 20:09:33 2401.200-2431.200
DOVE 4 25 Apr 20:05:27 20:09:19 34° 68° (ENE) 20:13:26 437.250
M-CUBED/EXP-1 PRIME 25 Apr 20:11:16 20:15:18 38° 297° (WNW) 20:18:59 437.505
Oscar 11 25 Apr 20:12:42 20:15:10 15° 62° (ENE) 20:17:46 145.826/435.025
DELFI C3 25 Apr 20:16:03 20:17:19 11° 60° (ENE) 20:18:45 145.870
Cosmos 2499 25 Apr 20:18:26 20:26:36 38° 293° (WNW) 20:34:23 435.465 / 435.565
SEEDS 25 Apr 20:21:14 20:25:18 45° 71° (ENE) 20:29:26 437.485
CANX-2 25 Apr 20:29:36 20:33:53 73° 75° (ENE) 20:38:13 2200.000
AAUSAT CUBESAT 2 25 Apr 20:38:06 20:42:10 48° 72° (ENE) 20:46:16 437.432
